TimeAST,TemperatureF,Dew PointF,Humidity,Sea Level PressureIn,VisibilityMPH,Wind Direction,Wind SpeedMPH,Gust SpeedMPH,PrecipitationIn,Events,Conditions,WindDirDegrees,DateUTC
12:00 AM,82.4,77.0,84,29.92,-9999.0,East,18.4,-,N/A,,Unknown,80,2013-07-16 04:00:00
1:00 AM,82.4,77.0,84,29.92,-9999.0,East,18.4,-,N/A,,Unknown,80,2013-07-16 05:00:00
2:00 AM,82.4,77.0,84,29.89,-9999.0,East,18.4,-,N/A,,Unknown,90,2013-07-16 06:00:00
3:00 AM,82.4,77.0,84,29.89,-9999.0,East,17.3,-,N/A,,Unknown,90,2013-07-16 07:00:00
4:00 AM,82.4,77.0,84,29.89,-9999.0,East,20.7,-,N/A,,Unknown,80,2013-07-16 08:00:00
5:00 AM,82.4,77.0,84,29.89,-9999.0,East,19.6,-,N/A,,Unknown,80,2013-07-16 09:00:00
6:00 AM,82.4,77.0,84,29.89,-9999.0,East,17.3,-,N/A,,Unknown,80,2013-07-16 10:00:00
6:55 AM,82.4,77.0,84,29.92,-9999.0,East,17.3,-,N/A,,Unknown,90,2013-07-16 10:55:00
8:00 AM,82.4,77.0,84,29.92,6.2,East,17.3,-,N/A,,Partly Cloudy,90,2013-07-16 12:00:00
9:00 AM,84.2,77.0,79,29.95,6.2,East,21.9,-,N/A,,Partly Cloudy,90,2013-07-16 13:00:00
10:00 AM,86.0,77.0,74,29.95,6.2,East,19.6,-,N/A,,Partly Cloudy,90,2013-07-16 14:00:00
11:00 AM,86.0,77.0,74,29.95,6.2,East,23.0,-,N/A,,Partly Cloudy,90,2013-07-16 15:00:00
12:00 PM,87.8,77.0,70,29.95,6.2,East,18.4,-,N/A,,Partly Cloudy,100,2013-07-16 16:00:00
1:00 PM,86.0,75.2,70,29.95,6.2,East,23.0,-,N/A,,Partly Cloudy,90,2013-07-16 17:00:00
2:00 PM,85,74,61,29.93,19,East,19.6,,,,Scattered Clouds,90,2013-07-16 18:00:00
2:00 PM,84.2,73.4,70,29.92,6.2,East,19.6,-,N/A,,Partly Cloudy,90,2013-07-16 18:00:00
3:00 PM,84.2,75.2,74,29.89,6.2,East,21.9,-,N/A,,Partly Cloudy,90,2013-07-16 19:00:00
4:00 PM,84.2,75.2,74,29.86,6.2,East,21.9,-,N/A,,Scattered Clouds,80,2013-07-16 20:00:00
5:00 PM,84,76,72,29.87,19,East,42.5,,,,Partly Cloudy,80,2013-07-16 21:00:00
5:00 PM,84.2,77.0,79,29.86,6.2,East,21.9,-,N/A,,Scattered Clouds,80,2013-07-16 21:00:00
6:00 PM,84.2,77.0,79,29.86,6.2,ENE,20.7,-,N/A,,Scattered Clouds,70,2013-07-16 22:00:00
6:55 PM,82.4,77.0,84,29.86,-9999.0,ENE,18.4,-,N/A,,Unknown,70,2013-07-16 22:55:00
8:00 PM,83,77,77,29.90,19,ENE,40.3,,,,Scattered Clouds,70,2013-07-17 00:00:00
8:00 PM,82.4,77.0,84,29.89,6.2,ENE,20.7,-,N/A,,Partly Cloudy,70,2013-07-17 00:00:00
11:00 PM,82.4,75.2,79,29.95,-9999.0,East,15.0,-,N/A,,Unknown,100,2013-07-17 03:00:00